Time,TemperatureF,DewpointF,PressureIn,WindDirection,WindDirectionDegrees,WindSpeedMPH,WindSpeedGustMPH,Humidity,HourlyPrecipIn,Conditions,Clouds,dailyrainin,SoftwareType,DateUTC
2013-04-23 00:21:00,33.0,12.0,-100.00,North,3,12.0,17.0,40,0.00,,,0.02,,2013-04-23 00:21:00,
2013-04-23 00:31:00,33.0,12.0,-100.00,North,3,12.0,17.0,40,0.00,,,0.02,,2013-04-23 00:31:00,
2013-04-23 00:42:00,33.0,12.0,-100.00,North,3,12.0,17.0,40,0.00,,,0.02,,2013-04-23 00:42:00,
2013-04-23 00:51:00,33.0,12.0,-100.00,North,3,12.0,17.0,40,0.00,,,0.02,,2013-04-23 00:51:00,
2013-04-23 01:11:00,32.0,10.0,-100.00,North,350,9.0,14.0,39,0.00,,,0.02,,2013-04-23 01:11:00,
2013-04-23 01:21:00,32.0,10.0,-100.00,North,350,9.0,14.0,39,0.00,,,0.02,,2013-04-23 01:21:00,
2013-04-23 01:32:00,32.0,10.0,-100.00,North,350,9.0,14.0,39,0.00,,,0.02,,2013-04-23 01:32:00,
2013-04-23 01:42:00,32.0,10.0,-100.00,North,350,9.0,14.0,39,0.00,,,0.02,,2013-04-23 01:42:00,
2013-04-23 01:52:00,32.0,10.0,-100.00,North,350,9.0,14.0,39,0.00,,,0.02,,2013-04-23 01:52:00,
2013-04-23 02:12:00,31.0,10.0,-100.00,North,8,8.0,14.0,42,0.00,,,0.02,,2013-04-23 02:12:00,
2013-04-23 02:21:00,31.0,10.0,-100.00,North,8,8.0,14.0,42,0.00,,,0.02,,2013-04-23 02:21:00,
2013-04-23 02:32:00,31.0,10.0,-100.00,North,8,8.0,14.0,42,0.00,,,0.02,,2013-04-23 02:32:00,
2013-04-23 02:42:00,31.0,10.0,-100.00,North,8,8.0,14.0,42,0.00,,,0.02,,2013-04-23 02:42:00,
2013-04-23 02:52:00,31.0,10.0,-100.00,North,8,8.0,14.0,42,0.00,,,0.02,,2013-04-23 02:52:00,
2013-04-23 03:21:00,26.0,10.0,-100.00,North,353,9.0,17.0,49,0.00,,,0.02,,2013-04-23 03:21:00,
2013-04-23 03:33:00,26.0,10.0,-100.00,North,353,9.0,17.0,49,0.00,,,0.02,,2013-04-23 03:33:00,
2013-04-23 03:43:00,26.0,10.0,-100.00,North,353,9.0,17.0,49,0.00,,,0.02,,2013-04-23 03:43:00,
2013-04-23 03:52:00,26.0,10.0,-100.00,North,353,9.0,17.0,49,0.00,,,0.02,,2013-04-23 03:52:00,
2013-04-23 04:12:00,23.0,11.0,-100.00,North,5,6.0,14.0,58,0.00,,,0.02,,2013-04-23 04:12:00,
2013-04-23 04:23:00,23.0,11.0,-100.00,North,5,6.0,14.0,58,0.00,,,0.02,,2013-04-23 04:23:00,
2013-04-23 04:33:00,23.0,11.0,-100.00,North,5,6.0,14.0,58,0.00,,,0.02,,2013-04-23 04:33:00,
2013-04-23 04:43:00,23.0,11.0,-100.00,North,5,6.0,14.0,58,0.00,,,0.02,,2013-04-23 04:43:00,
2013-04-23 04:52:00,23.0,11.0,-100.00,North,5,6.0,14.0,58,0.00,,,0.02,,2013-04-23 04:52:00,
2013-04-23 05:22:00,22.0,10.0,-100.00,NNE,28,7.0,10.0,61,0.00,,,0.01,,2013-04-23 05:22:00,
2013-04-23 05:32:00,22.0,10.0,-100.00,NNE,28,7.0,10.0,61,0.00,,,0.01,,2013-04-23 05:32:00,
2013-04-23 05:42:00,22.0,10.0,-100.00,NNE,28,7.0,10.0,61,0.00,,,0.01,,2013-04-23 05:42:00,
2013-04-23 05:52:00,22.0,10.0,-100.00,NNE,28,7.0,10.0,61,0.00,,,0.01,,2013-04-23 05:52:00,
2013-04-23 06:12:00,20.0,11.0,-100.00,ENE,68,4.0,8.0,68,0.00,,,0.01,,2013-04-23 06:12:00,
2013-04-23 06:21:00,20.0,11.0,-100.00,ENE,68,4.0,8.0,68,0.00,,,0.01,,2013-04-23 06:21:00,
2013-04-23 06:32:00,20.0,11.0,-100.00,ENE,68,4.0,8.0,68,0.00,,,0.01,,2013-04-23 06:32:00,
2013-04-23 06:41:00,20.0,11.0,-100.00,ENE,68,4.0,8.0,68,0.00,,,0.01,,2013-04-23 06:41:00,
2013-04-23 06:52:00,20.0,11.0,-100.00,ENE,68,4.0,8.0,68,0.00,,,0.01,,2013-04-23 06:52:00,
2013-04-23 07:21:00,18.0,9.0,-100.00,NE,35,7.0,12.0,67,0.00,,,0.01,,2013-04-23 07:21:00,
2013-04-23 07:32:00,18.0,9.0,-100.00,NE,35,7.0,12.0,67,0.00,,,0.01,,2013-04-23 07:32:00,
2013-04-23 07:42:00,18.0,9.0,-100.00,NE,35,7.0,12.0,67,0.00,,,0.01,,2013-04-23 07:42:00,
2013-04-23 07:52:00,18.0,9.0,-100.00,NE,35,7.0,12.0,67,0.00,,,0.01,,2013-04-23 07:52:00,
2013-04-23 08:21:00,18.0,10.0,-100.00,NNE,25,7.0,12.0,70,0.00,,,0.01,,2013-04-23 08:21:00,
2013-04-23 08:31:00,18.0,10.0,-100.00,NNE,25,7.0,12.0,70,0.00,,,0.01,,2013-04-23 08:31:00,
2013-04-23 08:42:00,18.0,10.0,-100.00,NNE,25,7.0,12.0,70,0.00,,,0.01,,2013-04-23 08:42:00,
2013-04-23 08:52:00,18.0,10.0,-100.00,NNE,25,7.0,12.0,70,0.00,,,0.01,,2013-04-23 08:52:00,
2013-04-23 09:11:00,16.0,8.0,-100.00,NE,47,5.0,8.0,68,0.00,,,0.01,,2013-04-23 09:11:00,
2013-04-23 09:21:00,16.0,8.0,-100.00,NE,47,5.0,8.0,68,0.00,,,0.01,,2013-04-23 09:21:00,
2013-04-23 09:32:00,16.0,8.0,-100.00,NE,47,5.0,8.0,68,0.00,,,0.01,,2013-04-23 09:32:00,
2013-04-23 09:42:00,16.0,8.0,-100.00,NE,47,5.0,8.0,68,0.00,,,0.01,,2013-04-23 09:42:00,
2013-04-23 09:52:00,16.0,8.0,-100.00,NE,47,5.0,8.0,68,0.00,,,0.01,,2013-04-23 09:52:00,
2013-04-23 10:22:00,16.0,5.0,-100.00,ENE,58,6.0,8.0,62,0.00,,,0.01,,2013-04-23 10:22:00,
2013-04-23 10:32:00,16.0,5.0,-100.00,ENE,58,6.0,8.0,62,0.00,,,0.01,,2013-04-23 10:32:00,
2013-04-23 10:42:00,16.0,5.0,-100.00,ENE,58,6.0,8.0,62,0.00,,,0.01,,2013-04-23 10:42:00,
2013-04-23 10:52:00,16.0,5.0,-100.00,ENE,58,6.0,8.0,62,0.00,,,0.01,,2013-04-23 10:52:00,
2013-04-23 11:12:00,14.0,5.0,-100.00,East,82,5.0,8.0,64,0.00,,,0.00,,2013-04-23 11:12:00,
2013-04-23 11:21:00,14.0,5.0,-100.00,East,82,5.0,8.0,64,0.00,,,0.00,,2013-04-23 11:21:00,
2013-04-23 11:32:00,14.0,5.0,-100.00,East,82,5.0,8.0,64,0.00,,,0.00,,2013-04-23 11:32:00,
2013-04-23 11:42:00,14.0,5.0,-100.00,East,82,5.0,8.0,64,0.00,,,0.00,,2013-04-23 11:42:00,
2013-04-23 11:52:00,14.0,5.0,-100.00,East,82,5.0,8.0,64,0.00,,,0.00,,2013-04-23 11:52:00,
2013-04-23 12:22:00,9.0,5.0,-100.00,NW,319,1.0,4.0,80,0.00,,,0.00,,2013-04-23 12:22:00,
2013-04-23 12:32:00,9.0,5.0,-100.00,NW,319,1.0,4.0,80,0.00,,,0.00,,2013-04-23 12:32:00,
2013-04-23 12:41:00,9.0,5.0,-100.00,NW,319,1.0,4.0,80,0.00,,,0.00,,2013-04-23 12:41:00,
2013-04-23 12:51:00,9.0,5.0,-100.00,NW,319,1.0,4.0,80,0.00,,,0.00,,2013-04-23 12:51:00,
2013-04-23 13:11:00,7.0,4.0,-100.00,SW,223,4.0,5.0,86,0.00,,,0.00,,2013-04-23 13:11:00,
2013-04-23 13:21:00,7.0,4.0,-100.00,SW,223,4.0,5.0,86,0.00,,,0.00,,2013-04-23 13:21:00,
2013-04-23 13:32:00,7.0,4.0,-100.00,SW,223,4.0,5.0,86,0.00,,,0.00,,2013-04-23 13:32:00,
2013-04-23 13:41:00,7.0,4.0,-100.00,SW,223,4.0,5.0,86,0.00,,,0.00,,2013-04-23 13:41:00,
2013-04-23 13:52:00,7.0,4.0,-100.00,SW,223,4.0,5.0,86,0.00,,,0.00,,2013-04-23 13:52:00,
2013-04-23 14:11:00,6.0,4.0,-100.00,NNW,348,2.0,2.0,90,0.00,,,0.00,,2013-04-23 14:11:00,
2013-04-23 14:22:00,6.0,4.0,-100.00,NNW,348,2.0,2.0,90,0.00,,,0.00,,2013-04-23 14:22:00,
2013-04-23 15:21:00,24.0,6.0,-100.00,ENE,74,2.0,4.0,45,-99.99,,,0.00,,2013-04-23 15:21:00,
2013-04-23 15:32:00,24.0,6.0,-100.00,ENE,74,2.0,4.0,45,-99.99,,,0.00,,2013-04-23 15:32:00,
2013-04-23 15:42:00,24.0,6.0,-100.00,ENE,74,2.0,4.0,45,-99.99,,,0.00,,2013-04-23 15:42:00,
2013-04-23 15:52:00,24.0,6.0,-100.00,ENE,74,2.0,4.0,45,-99.99,,,0.00,,2013-04-23 15:52:00,
2013-04-23 16:12:00,32.0,7.0,-100.00,SSE,151,2.0,4.0,35,0.00,,,0.00,,2013-04-23 16:12:00,
2013-04-23 16:23:00,32.0,7.0,-100.00,SSE,151,2.0,4.0,35,0.00,,,0.00,,2013-04-23 16:23:00,
2013-04-23 16:33:00,32.0,7.0,-100.00,SSE,151,2.0,4.0,35,0.00,,,0.00,,2013-04-23 16:33:00,
2013-04-23 16:42:00,32.0,7.0,-100.00,SSE,151,2.0,4.0,35,0.00,,,0.00,,2013-04-23 16:42:00,
2013-04-23 16:52:00,32.0,7.0,-100.00,SSE,151,2.0,4.0,35,0.00,,,0.00,,2013-04-23 16:52:00,
2013-04-23 17:22:00,32.0,6.0,-100.00,WNW,285,1.0,4.0,33,0.00,,,0.00,,2013-04-23 17:22:00,
2013-04-23 17:32:00,32.0,6.0,-100.00,WNW,285,1.0,4.0,33,0.00,,,0.00,,2013-04-23 17:32:00,
2013-04-23 17:42:00,32.0,6.0,-100.00,WNW,285,1.0,4.0,33,0.00,,,0.00,,2013-04-23 17:42:00,
2013-04-23 17:53:00,32.0,6.0,-100.00,WNW,285,1.0,4.0,33,0.00,,,0.00,,2013-04-23 17:53:00,
2013-04-23 18:22:00,36.0,7.0,-100.00,West,264,2.0,5.0,30,0.00,,,0.00,,2013-04-23 18:22:00,
2013-04-23 18:32:00,36.0,7.0,-100.00,West,264,2.0,5.0,30,0.00,,,0.00,,2013-04-23 18:32:00,
2013-04-23 18:42:00,36.0,7.0,-100.00,West,264,2.0,5.0,30,0.00,,,0.00,,2013-04-23 18:42:00,
2013-04-23 18:52:00,36.0,7.0,-100.00,West,264,2.0,5.0,30,0.00,,,0.00,,2013-04-23 18:52:00,
2013-04-23 19:21:00,38.0,7.0,-100.00,NW,316,5.0,7.0,27,0.00,,,-99.99,,2013-04-23 19:21:00,
2013-04-23 19:32:00,38.0,7.0,-100.00,NW,316,5.0,7.0,27,0.00,,,-99.99,,2013-04-23 19:32:00,
2013-04-23 19:42:00,38.0,7.0,-100.00,NW,316,5.0,7.0,27,0.00,,,-99.99,,2013-04-23 19:42:00,
2013-04-23 19:52:00,38.0,7.0,-100.00,NW,316,5.0,7.0,27,0.00,,,-99.99,,2013-04-23 19:52:00,
2013-04-23 20:11:00,39.0,8.0,-100.00,WNW,300,6.0,9.0,27,0.00,,,0.00,,2013-04-23 20:11:00,
2013-04-23 20:21:00,39.0,8.0,-100.00,WNW,300,6.0,9.0,27,0.00,,,0.00,,2013-04-23 20:21:00,
2013-04-23 20:31:00,39.0,8.0,-100.00,WNW,300,6.0,9.0,27,0.00,,,0.00,,2013-04-23 20:31:00,
2013-04-23 20:41:00,39.0,8.0,-100.00,WNW,300,6.0,9.0,27,0.00,,,0.00,,2013-04-23 20:41:00,
2013-04-23 20:51:00,39.0,8.0,-100.00,WNW,300,6.0,9.0,27,0.00,,,0.00,,2013-04-23 20:51:00,
2013-04-23 21:12:00,40.0,9.0,-100.00,WNW,285,8.0,13.0,28,0.00,,,0.00,,2013-04-23 21:12:00,
2013-04-23 21:21:00,40.0,9.0,-100.00,WNW,285,8.0,13.0,28,0.00,,,0.00,,2013-04-23 21:21:00,
2013-04-23 21:32:00,40.0,9.0,-100.00,WNW,285,8.0,13.0,28,0.00,,,0.00,,2013-04-23 21:32:00,
2013-04-23 21:43:00,40.0,9.0,-100.00,WNW,285,8.0,13.0,28,0.00,,,0.00,,2013-04-23 21:43:00,
2013-04-23 21:52:00,40.0,9.0,-100.00,WNW,285,8.0,13.0,28,0.00,,,0.00,,2013-04-23 21:52:00,
2013-04-23 22:12:00,42.0,6.0,-100.00,West,271,5.0,9.0,22,0.00,,,0.00,,2013-04-23 22:12:00,
2013-04-23 22:22:00,42.0,6.0,-100.00,West,271,5.0,9.0,22,0.00,,,0.00,,2013-04-23 22:22:00,
2013-04-23 22:33:00,42.0,6.0,-100.00,West,271,5.0,9.0,22,0.00,,,0.00,,2013-04-23 22:33:00,
2013-04-23 22:42:00,42.0,6.0,-100.00,West,271,5.0,9.0,22,0.00,,,0.00,,2013-04-23 22:42:00,
2013-04-23 22:52:00,42.0,6.0,-100.00,West,271,5.0,9.0,22,0.00,,,0.00,,2013-04-23 22:52:00,
2013-04-23 23:12:00,42.0,8.0,-100.00,WSW,251,7.0,12.0,24,0.00,,,0.00,,2013-04-23 23:12:00,
2013-04-23 23:22:00,42.0,8.0,-100.00,WSW,251,7.0,12.0,24,0.00,,,0.00,,2013-04-23 23:22:00,
2013-04-23 23:32:00,42.0,8.0,-100.00,WSW,251,7.0,12.0,24,0.00,,,0.00,,2013-04-23 23:32:00,
2013-04-23 23:42:00,42.0,8.0,-100.00,WSW,251,7.0,12.0,24,0.00,,,0.00,,2013-04-23 23:42:00,
2013-04-23 23:52:00,42.0,8.0,-100.00,WSW,251,7.0,12.0,24,0.00,,,0.00,,2013-04-23 23:52:00,